Flag for Germany Weather past 2 weeks in Biberach an der Riss, Baden-Württemberg, Germany

Now
61 °F

Partly sunny.


Feels Like: 61 °F
Forecast: 60 / 73 °F
Wind: 8 mph from Southwest

Location: Laupheim Airport

Current Time: Jul 30, 2014 at 9:09:35 AM

Latest Report: Jul 30, 2014 at 8:20 AM


Visibility: N/A

Pressure: 29.83 "Hg

Humidity: 94%

Dew point: 59 °F

Location of Biberach an der RissLocation

Historic Weather in Biberach an der Riss — Graph

°F

Biberach an der Riss temperature yesterday

Maximum temperature yesterday: 66 °F (at 4:20 PM)
Minimum temperature yesterday: 59 °F (at 12:20 AM)
Average temperature yesterday: 62 °F

Past Weeks' High & Low Weather Summary

 TemperatureHumidityPressure
High90 °F (Jul 19, 5:20 PM)100% (Jul 21, 6:20 PM)30.21 "Hg (Jul 21, 6:20 PM)
Low55 °F (Jul 16, 4:20 AM)29% (Jul 19, 5:20 PM)29.80 "Hg (Jul 28, 5:20 PM)
Average67 °F74%29.99 "Hg
* Reported Jul 15 7:20 AM — Jul 30 7:20 AM, Biberach an der Riss, Weather by CustomWeather, © 2014

Note: Actual official high and low records may vary slightly from our data, if they occured in-between our weather recording intervals... More about our weather records

Advertising

Biberach an der Riss weather history for previous 24 hours

 ConditionsComfort  
Time TempWeatherWind HumidityBarometerVisibility
7:20 AM
Jul 30
61 °FBroken clouds.8 mph94%29.83 "HgN/A
6:20 AM61 °FPartly cloudy.7 mph94%29.80 "Hg5 mi
5:20 AM61 °FDrizzle. Fog.7 mph94%29.80 "Hg2 mi
4:20 AM61 °FPassing clouds.7 mph94%29.80 "Hg5 mi
3:20 AM61 °FPassing clouds.9 mph100%29.80 "Hg5 mi
2:20 AM63 °FPartly cloudy.7 mph94%29.83 "HgN/A
1:20 AM63 °FPartly cloudy.5 mph94%29.83 "HgN/A
12:20 AM63 °FPassing clouds.7 mph94%29.83 "HgN/A
11:20 PM
Jul 29
63 °FPartly cloudy.6 mph94%29.83 "HgN/A
10:20 PM63 °FPassing clouds.6 mph94%29.83 "HgN/A
9:20 PM63 °FPartly sunny.6 mph94%29.83 "HgN/A
8:20 PM64 °FPartly sunny.8 mph88%29.80 "HgN/A
7:20 PM66 °FPartly sunny.5 mph88%29.80 "HgN/A
6:20 PM64 °FBroken clouds.7 mph88%29.80 "HgN/A
5:20 PM64 °FBroken clouds.6 mph88%29.80 "HgN/A
4:20 PM66 °FPartly sunny.3 mph83%29.80 "HgN/A
3:20 PM64 °FLight rain. Partly sunny.5 mph88%29.80 "HgN/A
2:20 PM63 °FLight rain. Broken clouds.2 mph94%29.80 "HgN/A
1:20 PM63 °FBroken clouds.3 mph94%29.83 "HgN/A
12:20 PM63 °FPartly sunny.2 mph94%29.83 "HgN/A
11:20 AM63 °FPartly sunny.3 mph94%29.83 "HgN/A
10:20 AM61 °FLight rain. Cloudy.2 mph94%29.83 "Hg6 mi
9:58 AM61 °FRain. Mostly cloudy.1 mph94%29.83 "Hg5 mi
9:20 AM61 °FLight rain. Broken clouds.1 mph94%29.83 "HgN/A
Weather by CustomWeather, © 2014

See weather overviewHow to use our weather pages